Year,Month,Day,Hour,Minute,Value (Times are PST for temperature in C)
2014,10,01,00,00,12.80
2014,10,01,00,01,12.80
2014,10,01,00,02,12.80
2014,10,01,00,03,12.80
2014,10,01,00,04,12.80
2014,10,01,00,05,12.80
2014,10,01,00,06,12.80
2014,10,01,00,07,12.80
2014,10,01,00,08,12.80
2014,10,01,00,09,12.80
2014,10,01,00,10,12.80
2014,10,01,00,11,12.80
2014,10,01,00,12,12.80
2014,10,01,00,13,12.80
2014,10,01,00,14,12.80
2014,10,01,00,15,12.80
2014,10,01,00,16,12.80
2014,10,01,00,17,12.80
2014,10,01,00,18,12.80
2014,10,01,00,19,12.80
2014,10,01,00,20,12.80
2014,10,01,00,21,12.80
2014,10,01,00,22,12.80
2014,10,01,00,23,12.80
2014,10,01,00,24,12.80
2014,10,01,00,25,12.80
2014,10,01,00,26,12.80
2014,10,01,00,27,12.80
2014,10,01,00,28,12.80
2014,10,01,00,29,12.80
2014,10,01,00,30,12.80
2014,10,01,00,31,12.80
2014,10,01,00,32,12.80
2014,10,01,00,33,12.80
2014,10,01,00,34,12.80
2014,10,01,00,35,12.80
2014,10,01,00,36,12.80
2014,10,01,00,37,12.80
2014,10,01,00,38,12.80
2014,10,01,00,39,12.80
2014,10,01,00,40,12.80
2014,10,01,00,41,12.80
2014,10,01,00,42,12.80
2014,10,01,00,43,12.80
2014,10,01,00,44,12.80
2014,10,01,00,45,12.80
2014,10,01,00,46,12.80
2014,10,01,00,47,12.80
2014,10,01,00,48,12.80
2014,10,01,00,49,12.80
2014,10,01,00,50,12.80
2014,10,01,00,51,12.80
2014,10,01,00,52,12.90
2014,10,01,00,53,12.90
2014,10,01,00,54,12.90
2014,10,01,00,55,12.90
2014,10,01,00,56,12.90
2014,10,01,00,57,12.90
2014,10,01,00,58,12.90
2014,10,01,00,59,12.90
2014,10,01,01,00,12.90
2014,10,01,01,01,12.90
2014,10,01,01,02,12.90
2014,10,01,01,03,12.90
2014,10,01,01,04,12.90
2014,10,01,01,05,12.90
2014,10,01,01,06,12.90
2014,10,01,01,07,12.90
2014,10,01,01,08,12.90
2014,10,01,01,09,12.80
2014,10,01,01,10,12.80
2014,10,01,01,11,12.80
2014,10,01,01,12,12.80
2014,10,01,01,13,12.80
2014,10,01,01,14,12.80
2014,10,01,01,15,12.80
2014,10,01,01,16,12.80
2014,10,01,01,17,12.70
2014,10,01,01,18,12.70
2014,10,01,01,19,12.70
2014,10,01,01,20,12.70
2014,10,01,01,21,12.70
2014,10,01,01,22,12.70
2014,10,01,01,23,12.60
2014,10,01,01,24,12.60
2014,10,01,01,25,12.60
2014,10,01,01,26,12.60
2014,10,01,01,27,12.60
2014,10,01,01,28,12.60
2014,10,01,01,29,12.60
2014,10,01,01,30,12.60
2014,10,01,01,31,12.60
2014,10,01,01,32,12.60
2014,10,01,01,33,12.50
2014,10,01,01,34,12.50
2014,10,01,01,35,12.50
2014,10,01,01,36,12.40
2014,10,01,01,37,12.40
2014,10,01,01,38,12.40
2014,10,01,01,39,12.40
2014,10,01,01,40,12.40
2014,10,01,01,41,12.40
2014,10,01,01,42,12.30
2014,10,01,01,43,12.30
2014,10,01,01,44,12.30
2014,10,01,01,45,12.30
2014,10,01,01,46,12.30
2014,10,01,01,47,12.20
2014,10,01,01,48,12.20
2014,10,01,01,49,12.20
2014,10,01,01,50,12.20
2014,10,01,01,51,12.20
2014,10,01,01,52,12.20
2014,10,01,01,53,12.10
2014,10,01,01,54,12.10
2014,10,01,01,55,12.10
2014,10,01,01,56,12.10
2014,10,01,01,57,12.10
2014,10,01,01,58,12.10
2014,10,01,01,59,12.10
2014,10,01,02,00,12.10
2014,10,01,02,01,12.10
2014,10,01,02,02,12.10
2014,10,01,02,03,12.10
2014,10,01,02,04,12.10
2014,10,01,02,05,12.10
2014,10,01,02,06,12.10
2014,10,01,02,07,12.10
2014,10,01,02,08,12.10
2014,10,01,02,09,12.00
2014,10,01,02,10,12.00
2014,10,01,02,11,12.00
2014,10,01,02,12,12.00
2014,10,01,02,13,12.00
2014,10,01,02,14,12.00
2014,10,01,02,15,12.00
2014,10,01,02,16,12.00
2014,10,01,02,17,12.00
2014,10,01,02,18,12.00
2014,10,01,02,19,12.00
2014,10,01,02,20,12.00
2014,10,01,02,21,12.00
2014,10,01,02,22,12.00
2014,10,01,02,23,12.00
2014,10,01,02,24,12.00
2014,10,01,02,25,12.00
2014,10,01,02,26,12.00
2014,10,01,02,27,12.00
2014,10,01,02,28,12.00
2014,10,01,02,29,12.00
2014,10,01,02,30,12.00
2014,10,01,02,31,12.00
2014,10,01,02,32,12.00
2014,10,01,02,33,12.00
2014,10,01,02,34,12.10
2014,10,01,02,35,12.10
2014,10,01,02,36,12.10
2014,10,01,02,37,12.10
2014,10,01,02,38,12.10
2014,10,01,02,39,12.10
2014,10,01,02,40,12.10
2014,10,01,02,41,12.10
2014,10,01,02,42,12.10
2014,10,01,02,43,12.10
2014,10,01,02,44,12.10
2014,10,01,02,45,12.10
2014,10,01,02,46,12.10
2014,10,01,02,47,12.10
2014,10,01,02,48,12.10
2014,10,01,02,49,12.10
2014,10,01,02,50,12.10
2014,10,01,02,51,12.10
2014,10,01,02,52,12.10
2014,10,01,02,53,12.10
2014,10,01,02,54,12.10
2014,10,01,02,55,12.10
2014,10,01,02,56,12.10
2014,10,01,02,57,12.10
2014,10,01,02,58,12.10
2014,10,01,02,59,12.10
2014,10,01,03,00,12.10
2014,10,01,03,01,12.00
2014,10,01,03,02,12.00
2014,10,01,03,03,12.00
2014,10,01,03,04,12.00
2014,10,01,03,05,12.00
2014,10,01,03,06,12.00
2014,10,01,03,07,12.00
2014,10,01,03,08,12.00
2014,10,01,03,09,11.90
2014,10,01,03,10,11.90
2014,10,01,03,11,11.90
2014,10,01,03,12,11.90
2014,10,01,03,13,11.90
2014,10,01,03,14,11.90
2014,10,01,03,15,11.90
2014,10,01,03,16,11.90
2014,10,01,03,17,11.90
2014,10,01,03,18,11.90
2014,10,01,03,19,11.90
2014,10,01,03,20,11.90
2014,10,01,03,21,11.80
2014,10,01,03,22,11.80
2014,10,01,03,23,11.80
2014,10,01,03,24,11.80
2014,10,01,03,25,11.80
2014,10,01,03,26,11.80
2014,10,01,03,27,11.80
2014,10,01,03,28,11.80
2014,10,01,03,29,11.80
2014,10,01,03,30,11.80
2014,10,01,03,31,11.80
2014,10,01,03,32,11.70
2014,10,01,03,33,11.70
2014,10,01,03,34,11.70
2014,10,01,03,35,11.70
2014,10,01,03,36,11.70
2014,10,01,03,37,11.60
2014,10,01,03,38,11.60
2014,10,01,03,39,11.60
2014,10,01,03,40,11.60
2014,10,01,03,41,11.60
2014,10,01,03,42,11.60
2014,10,01,03,43,11.60
2014,10,01,03,44,11.60
2014,10,01,03,45,11.60
2014,10,01,03,46,11.50
2014,10,01,03,47,11.50
2014,10,01,03,48,11.50
2014,10,01,03,49,11.50
2014,10,01,03,50,11.50
2014,10,01,03,51,11.50
2014,10,01,03,52,11.40
2014,10,01,03,53,11.40
2014,10,01,03,54,11.40
2014,10,01,03,55,11.40
2014,10,01,03,56,11.40
2014,10,01,03,57,11.30
2014,10,01,03,58,11.30
2014,10,01,03,59,11.30
2014,10,01,04,00,11.20
2014,10,01,04,01,11.20
2014,10,01,04,02,11.20
2014,10,01,04,03,11.10
2014,10,01,04,04,11.10
2014,10,01,04,05,11.10
2014,10,01,04,06,11.10
2014,10,01,04,07,11.00
2014,10,01,04,08,11.00
2014,10,01,04,09,11.00
2014,10,01,04,10,11.00
2014,10,01,04,11,11.00
2014,10,01,04,12,11.00
2014,10,01,04,13,11.00
2014,10,01,04,14,11.00
2014,10,01,04,15,10.90
2014,10,01,04,16,10.90
2014,10,01,04,17,10.90
2014,10,01,04,18,10.90
2014,10,01,04,19,10.80
2014,10,01,04,20,10.80
2014,10,01,04,21,10.70
2014,10,01,04,22,10.70
2014,10,01,04,23,10.70
2014,10,01,04,24,10.60
2014,10,01,04,25,10.60
2014,10,01,04,26,10.60
2014,10,01,04,27,10.50
2014,10,01,04,28,10.50
2014,10,01,04,29,10.40
2014,10,01,04,30,10.40
2014,10,01,04,31,10.40
2014,10,01,04,32,10.40
2014,10,01,04,33,10.30
2014,10,01,04,34,10.30
2014,10,01,04,35,10.30
2014,10,01,04,36,10.30
2014,10,01,04,37,10.30
2014,10,01,04,38,10.30
2014,10,01,04,39,10.20
2014,10,01,04,40,10.20
2014,10,01,04,41,10.20
2014,10,01,04,42,10.20
2014,10,01,04,43,10.20
2014,10,01,04,44,10.20
2014,10,01,04,45,10.20
2014,10,01,04,46,10.20
2014,10,01,04,47,10.20
2014,10,01,04,48,10.20
2014,10,01,04,49,10.30
2014,10,01,04,50,10.30
2014,10,01,04,51,10.30
2014,10,01,04,52,10.30
2014,10,01,04,53,10.30
2014,10,01,04,54,10.40
2014,10,01,04,55,10.40
2014,10,01,04,56,10.50
2014,10,01,04,57,10.50
2014,10,01,04,58,10.50
2014,10,01,04,59,10.60
2014,10,01,05,00,10.60
2014,10,01,05,01,10.60
2014,10,01,05,02,10.60
2014,10,01,05,03,10.60
2014,10,01,05,04,10.60
2014,10,01,05,05,10.60
2014,10,01,05,06,10.70
2014,10,01,05,07,10.70
2014,10,01,05,08,10.70
2014,10,01,05,09,10.70
2014,10,01,05,10,10.70
2014,10,01,05,11,10.70
2014,10,01,05,12,10.70
2014,10,01,05,13,10.70
2014,10,01,05,14,10.70
2014,10,01,05,15,10.70
2014,10,01,05,16,10.70
2014,10,01,05,17,10.70
2014,10,01,05,18,10.70
2014,10,01,05,19,10.70
2014,10,01,05,20,10.70
2014,10,01,05,21,10.70
2014,10,01,05,22,10.70
2014,10,01,05,23,10.70
2014,10,01,05,24,10.70
2014,10,01,05,25,10.70
2014,10,01,05,26,10.70
2014,10,01,05,27,10.70
2014,10,01,05,28,10.70
2014,10,01,05,29,10.70
2014,10,01,05,30,10.60
2014,10,01,05,31,10.60
2014,10,01,05,32,10.60
2014,10,01,05,33,10.60
2014,10,01,05,34,10.60
2014,10,01,05,35,10.60
2014,10,01,05,36,10.60
2014,10,01,05,37,10.60
2014,10,01,05,38,10.60
2014,10,01,05,39,10.60
2014,10,01,05,40,10.60
2014,10,01,05,41,10.60
2014,10,01,05,42,10.60
2014,10,01,05,43,10.60
2014,10,01,05,44,10.50
2014,10,01,05,45,10.50
2014,10,01,05,46,10.50
2014,10,01,05,47,10.40
2014,10,01,05,48,10.40
2014,10,01,05,49,10.40
2014,10,01,05,50,10.30
2014,10,01,05,51,10.30
2014,10,01,05,52,10.20
2014,10,01,05,53,10.20
2014,10,01,05,54,10.20
2014,10,01,05,55,10.10
2014,10,01,05,56,10.10
2014,10,01,05,57,10.10
2014,10,01,05,58,10.10
2014,10,01,05,59,10.00
2014,10,01,06,00,10.00
2014,10,01,06,01,10.00
2014,10,01,06,02,10.00
2014,10,01,06,03,10.00
2014,10,01,06,04,9.90
2014,10,01,06,05,10.00
2014,10,01,06,06,9.90
2014,10,01,06,07,10.00
2014,10,01,06,08,10.00
2014,10,01,06,09,10.00
2014,10,01,06,10,10.00
2014,10,01,06,11,10.00
2014,10,01,06,12,10.00
2014,10,01,06,13,10.10
2014,10,01,06,14,10.10
2014,10,01,06,15,10.10
2014,10,01,06,16,10.10
2014,10,01,06,17,10.10
2014,10,01,06,18,10.10
2014,10,01,06,19,10.10
2014,10,01,06,20,10.10
2014,10,01,06,21,10.10
2014,10,01,06,22,10.10
2014,10,01,06,23,10.00
2014,10,01,06,24,10.00
2014,10,01,06,25,10.00
2014,10,01,06,26,10.00
2014,10,01,06,27,9.90
2014,10,01,06,28,9.90
2014,10,01,06,29,9.90
2014,10,01,06,30,9.80
2014,10,01,06,31,9.80
2014,10,01,06,32,9.80
2014,10,01,06,33,9.80
2014,10,01,06,34,9.70
2014,10,01,06,35,9.70
2014,10,01,06,36,9.70
2014,10,01,06,37,9.70
2014,10,01,06,38,9.70
2014,10,01,06,39,9.70
2014,10,01,06,40,9.60
2014,10,01,06,41,9.60
2014,10,01,06,42,9.60
2014,10,01,06,43,9.60
2014,10,01,06,44,9.60
2014,10,01,06,45,9.60
2014,10,01,06,46,9.60
2014,10,01,06,47,9.60
2014,10,01,06,48,9.50
2014,10,01,06,49,9.50
2014,10,01,06,50,9.50
2014,10,01,06,51,9.50
2014,10,01,06,52,9.40
2014,10,01,06,53,9.40
2014,10,01,06,54,9.40
2014,10,01,06,55,9.40
2014,10,01,06,56,9.40
2014,10,01,06,57,9.40
2014,10,01,06,58,9.40
2014,10,01,06,59,9.40
2014,10,01,07,00,9.40
2014,10,01,07,01,9.40
2014,10,01,07,02,9.40
2014,10,01,07,03,9.40
2014,10,01,07,04,9.40
2014,10,01,07,05,9.40
2014,10,01,07,06,9.40
2014,10,01,07,07,9.40
2014,10,01,07,08,9.40
2014,10,01,07,09,9.30
2014,10,01,07,10,9.30
2014,10,01,07,11,9.30
2014,10,01,07,12,9.30
2014,10,01,07,13,9.30
2014,10,01,07,14,9.30
2014,10,01,07,15,9.30
2014,10,01,07,16,9.30
2014,10,01,07,17,9.30
2014,10,01,07,18,9.30
2014,10,01,07,19,9.30
2014,10,01,07,20,9.30
2014,10,01,07,21,9.30
2014,10,01,07,22,9.30
2014,10,01,07,23,9.30
2014,10,01,07,24,9.30
2014,10,01,07,25,9.30
2014,10,01,07,26,9.30
2014,10,01,07,27,9.30
2014,10,01,07,28,9.40
2014,10,01,07,29,9.40
2014,10,01,07,30,9.40
2014,10,01,07,31,9.40
2014,10,01,07,32,9.40
2014,10,01,07,33,9.40
2014,10,01,07,34,9.40
2014,10,01,07,35,9.40
2014,10,01,07,36,9.40
2014,10,01,07,37,9.40
2014,10,01,07,38,9.40
2014,10,01,07,39,9.50
2014,10,01,07,40,9.50
2014,10,01,07,41,9.50
2014,10,01,07,42,9.50
2014,10,01,07,43,9.50
2014,10,01,07,44,9.50
2014,10,01,07,45,9.50
2014,10,01,07,46,9.50
2014,10,01,07,47,9.50
2014,10,01,07,48,9.50
2014,10,01,07,49,9.50
2014,10,01,07,50,9.50
2014,10,01,07,51,9.50
2014,10,01,07,52,9.40
2014,10,01,07,53,9.40
2014,10,01,07,54,9.40
2014,10,01,07,55,9.40
2014,10,01,07,56,9.40
2014,10,01,07,57,9.40
2014,10,01,07,58,9.40
2014,10,01,07,59,9.40
2014,10,01,08,00,9.40
2014,10,01,08,01,9.40
2014,10,01,08,02,9.40
2014,10,01,08,03,9.40
2014,10,01,08,04,9.40
2014,10,01,08,05,9.40
2014,10,01,08,06,9.40
2014,10,01,08,07,9.40
2014,10,01,08,08,9.40
2014,10,01,08,09,9.40
2014,10,01,08,10,9.40
2014,10,01,08,11,9.30
2014,10,01,08,12,9.30
2014,10,01,08,13,9.30
2014,10,01,08,14,9.40
2014,10,01,08,15,9.40
2014,10,01,08,16,9.40
2014,10,01,08,17,9.40
2014,10,01,08,18,9.40
2014,10,01,08,19,9.40
2014,10,01,08,20,9.40
2014,10,01,08,21,9.40
2014,10,01,08,22,9.40
2014,10,01,08,23,9.50
2014,10,01,08,24,9.50
2014,10,01,08,25,9.50
2014,10,01,08,26,9.60
2014,10,01,08,27,9.60
2014,10,01,08,28,9.60
2014,10,01,08,29,9.70
2014,10,01,08,30,9.70
2014,10,01,08,31,9.70
2014,10,01,08,32,9.80
2014,10,01,08,33,9.80
2014,10,01,08,34,9.80
2014,10,01,08,35,9.80
2014,10,01,08,36,9.90
2014,10,01,08,37,9.90
2014,10,01,08,38,9.90
2014,10,01,08,39,10.00
2014,10,01,08,40,10.00
2014,10,01,08,41,10.10
2014,10,01,08,42,10.10
2014,10,01,08,43,10.20
2014,10,01,08,44,10.20
2014,10,01,08,45,10.20
2014,10,01,08,46,10.30
2014,10,01,08,47,10.30
2014,10,01,08,48,10.40
2014,10,01,08,49,10.40
2014,10,01,08,50,10.50
2014,10,01,08,51,10.50
2014,10,01,08,52,10.60
2014,10,01,08,53,10.60
2014,10,01,08,54,10.60
2014,10,01,08,55,10.70
2014,10,01,08,56,10.70
2014,10,01,08,57,10.80
2014,10,01,08,58,10.80
2014,10,01,08,59,10.90
2014,10,01,09,00,10.90
2014,10,01,09,01,10.90
2014,10,01,09,02,11.00
2014,10,01,09,03,11.00
2014,10,01,09,04,11.00
2014,10,01,09,05,11.10
2014,10,01,09,06,11.10
2014,10,01,09,07,11.20
2014,10,01,09,08,11.20
2014,10,01,09,09,11.20
2014,10,01,09,10,11.30
2014,10,01,09,11,11.30
2014,10,01,09,12,11.40
2014,10,01,09,13,11.40
2014,10,01,09,14,11.50
2014,10,01,09,15,11.50
2014,10,01,09,16,11.60
2014,10,01,09,17,11.70
2014,10,01,09,18,11.70
2014,10,01,09,19,11.80
2014,10,01,09,20,11.90
2014,10,01,09,21,12.00
2014,10,01,09,22,12.00
2014,10,01,09,23,12.10
2014,10,01,09,24,12.20
2014,10,01,09,25,12.20
2014,10,01,09,26,12.30
2014,10,01,09,27,12.40
2014,10,01,09,28,12.50
2014,10,01,09,29,12.60
2014,10,01,09,30,12.60
2014,10,01,09,31,12.70
2014,10,01,09,32,12.80
2014,10,01,09,33,12.90
2014,10,01,09,34,12.90
2014,10,01,09,35,13.00
2014,10,01,09,36,13.10
2014,10,01,09,37,13.10
2014,10,01,09,38,13.20
2014,10,01,09,39,13.30
2014,10,01,09,40,13.40
2014,10,01,09,41,13.40
2014,10,01,09,42,13.50
2014,10,01,09,43,13.60
2014,10,01,09,44,13.60
2014,10,01,09,45,13.70
2014,10,01,09,46,13.80
2014,10,01,09,47,13.80
2014,10,01,09,48,13.90
2014,10,01,09,49,13.90
2014,10,01,09,50,14.00
2014,10,01,09,51,14.10
2014,10,01,09,52,14.20
2014,10,01,09,53,14.20
2014,10,01,09,54,14.30
2014,10,01,09,55,14.30
2014,10,01,09,56,14.30
2014,10,01,09,57,14.40
2014,10,01,09,58,14.40
2014,10,01,09,59,14.50
2014,10,01,10,00,14.60
2014,10,01,10,01,14.60
2014,10,01,10,02,14.70
2014,10,01,10,03,14.70
2014,10,01,10,04,14.80
2014,10,01,10,05,14.80
2014,10,01,10,06,14.90
2014,10,01,10,07,15.00
2014,10,01,10,08,15.00
2014,10,01,10,09,15.10
2014,10,01,10,10,15.20
2014,10,01,10,11,15.20
2014,10,01,10,12,15.20
2014,10,01,10,13,15.20
2014,10,01,10,14,15.20
2014,10,01,10,15,15.20
2014,10,01,10,16,15.20
2014,10,01,10,17,15.30
2014,10,01,10,18,15.30
2014,10,01,10,19,15.30
2014,10,01,10,20,15.30
2014,10,01,10,21,15.30
2014,10,01,10,22,15.30
2014,10,01,10,23,15.30
2014,10,01,10,24,15.30
2014,10,01,10,25,15.30
2014,10,01,10,26,15.30
2014,10,01,10,27,15.30
2014,10,01,10,28,15.30
2014,10,01,10,29,15.40
2014,10,01,10,30,15.40
2014,10,01,10,31,15.40
2014,10,01,10,32,15.40
2014,10,01,10,33,15.50
2014,10,01,10,34,15.50
2014,10,01,10,35,15.50
2014,10,01,10,36,15.60
2014,10,01,10,37,15.60
2014,10,01,10,38,15.60
2014,10,01,10,39,15.60
2014,10,01,10,40,15.60
2014,10,01,10,41,15.60
2014,10,01,10,42,15.60
2014,10,01,10,43,15.70
2014,10,01,10,44,15.80
2014,10,01,10,45,15.80
2014,10,01,10,46,15.90
2014,10,01,10,47,15.90
2014,10,01,10,48,16.00
2014,10,01,10,49,16.00
2014,10,01,10,50,16.00
2014,10,01,10,51,15.90
2014,10,01,10,52,15.90
2014,10,01,10,53,15.90
2014,10,01,10,54,15.90
2014,10,01,10,55,15.90
2014,10,01,10,56,15.90
2014,10,01,10,57,15.90
2014,10,01,10,58,16.00
2014,10,01,10,59,16.00
2014,10,01,11,00,16.00
2014,10,01,11,01,16.10
2014,10,01,11,02,16.10
2014,10,01,11,03,16.10
2014,10,01,11,04,16.20
2014,10,01,11,05,16.20
2014,10,01,11,06,16.20
2014,10,01,11,07,16.20
2014,10,01,11,08,16.20
2014,10,01,11,09,16.30
2014,10,01,11,10,16.30
2014,10,01,11,11,16.30
2014,10,01,11,12,16.30
2014,10,01,11,13,16.30
2014,10,01,11,14,16.30
2014,10,01,11,15,16.30
2014,10,01,11,16,16.30
2014,10,01,11,17,16.30
2014,10,01,11,18,16.30
2014,10,01,11,19,16.30
2014,10,01,11,20,16.40
2014,10,01,11,21,16.40
2014,10,01,11,22,16.40
2014,10,01,11,23,16.40
2014,10,01,11,24,16.40
2014,10,01,11,25,16.50
2014,10,01,11,26,16.50
2014,10,01,11,27,16.60
2014,10,01,11,28,16.70
2014,10,01,11,29,16.70
2014,10,01,11,30,16.80
2014,10,01,11,31,16.80
2014,10,01,11,32,16.80
2014,10,01,11,33,16.90
2014,10,01,11,34,16.90
2014,10,01,11,35,16.90
2014,10,01,11,36,16.90
2014,10,01,11,37,16.90
2014,10,01,11,38,16.90
2014,10,01,11,39,16.80
2014,10,01,11,40,16.90
2014,10,01,11,41,16.90
2014,10,01,11,42,16.90
2014,10,01,11,43,17.00
2014,10,01,11,44,17.00
2014,10,01,11,45,17.10
2014,10,01,11,46,17.10
2014,10,01,11,47,17.10
2014,10,01,11,48,17.10
2014,10,01,11,49,17.20
2014,10,01,11,50,17.20
2014,10,01,11,51,17.20
2014,10,01,11,52,17.20
2014,10,01,11,53,17.20
2014,10,01,11,54,17.20
2014,10,01,11,55,17.20
2014,10,01,11,56,17.10
2014,10,01,11,57,17.10
2014,10,01,11,58,17.10
2014,10,01,11,59,17.10
2014,10,01,12,00,17.10
2014,10,01,12,01,17.10
2014,10,01,12,02,17.20
2014,10,01,12,03,17.20
2014,10,01,12,04,17.20
2014,10,01,12,05,17.20
2014,10,01,12,06,17.20
2014,10,01,12,07,17.20
2014,10,01,12,08,17.20
2014,10,01,12,09,17.20
2014,10,01,12,10,17.20
2014,10,01,12,11,17.20
2014,10,01,12,12,17.30
2014,10,01,12,13,17.30
2014,10,01,12,14,17.30
2014,10,01,12,15,17.30
2014,10,01,12,16,17.30
2014,10,01,12,17,17.30
2014,10,01,12,18,17.30
2014,10,01,12,19,17.30
2014,10,01,12,20,17.30
2014,10,01,12,21,17.30
2014,10,01,12,22,17.30
2014,10,01,12,23,17.20
2014,10,01,12,24,17.20
2014,10,01,12,25,17.20
2014,10,01,12,26,17.20
2014,10,01,12,27,17.20
2014,10,01,12,28,17.20
2014,10,01,12,29,17.20
2014,10,01,12,30,17.20
2014,10,01,12,31,17.10
2014,10,01,12,32,17.10
2014,10,01,12,33,17.00
2014,10,01,12,34,17.00
2014,10,01,12,35,17.00
2014,10,01,12,36,17.00
2014,10,01,12,37,17.00
2014,10,01,12,38,17.10
2014,10,01,12,39,17.10
2014,10,01,12,40,17.10
2014,10,01,12,41,17.10
2014,10,01,12,42,17.20
2014,10,01,12,43,17.20
2014,10,01,12,44,17.20
2014,10,01,12,45,17.20
2014,10,01,12,46,17.30
2014,10,01,12,47,17.40
2014,10,01,12,48,17.40
2014,10,01,12,49,17.50
2014,10,01,12,50,17.50
2014,10,01,12,51,17.60
2014,10,01,12,52,17.60
2014,10,01,12,53,17.70
2014,10,01,12,54,17.70
2014,10,01,12,55,17.80
2014,10,01,12,56,17.80
2014,10,01,12,57,17.80
2014,10,01,12,58,17.70
2014,10,01,12,59,17.70
2014,10,01,13,00,17.70
2014,10,01,13,01,17.70
2014,10,01,13,02,17.70
2014,10,01,13,03,17.60
2014,10,01,13,04,17.60
2014,10,01,13,05,17.60
2014,10,01,13,06,17.60
2014,10,01,13,07,17.60
2014,10,01,13,08,17.60
2014,10,01,13,09,17.60
2014,10,01,13,10,17.60
2014,10,01,13,11,17.60
2014,10,01,13,12,17.60
2014,10,01,13,13,17.50
2014,10,01,13,14,17.50
2014,10,01,13,15,17.50
2014,10,01,13,16,17.50
2014,10,01,13,17,17.40
2014,10,01,13,18,17.50
2014,10,01,13,19,17.50
2014,10,01,13,20,17.50
2014,10,01,13,21,17.60
2014,10,01,13,22,17.60
2014,10,01,13,23,17.60
2014,10,01,13,24,17.60
2014,10,01,13,25,17.60
2014,10,01,13,26,17.60
2014,10,01,13,27,17.60
2014,10,01,13,28,17.60
2014,10,01,13,29,17.60
2014,10,01,13,30,17.60
2014,10,01,13,31,17.60
2014,10,01,13,32,17.50
2014,10,01,13,33,17.60
2014,10,01,13,34,17.60
2014,10,01,13,35,17.60
2014,10,01,13,36,17.60
2014,10,01,13,37,17.70
2014,10,01,13,38,17.70
2014,10,01,13,39,17.60
2014,10,01,13,40,17.60
2014,10,01,13,41,17.60
2014,10,01,13,42,17.60
2014,10,01,13,43,17.60
2014,10,01,13,44,17.60
2014,10,01,13,45,17.60
2014,10,01,13,46,17.60
2014,10,01,13,47,17.60
2014,10,01,13,48,17.70
2014,10,01,13,49,17.70
2014,10,01,13,50,17.70
2014,10,01,13,51,17.60
2014,10,01,13,52,17.60
2014,10,01,13,53,17.60
2014,10,01,13,54,17.60
2014,10,01,13,55,17.60
2014,10,01,13,56,17.70
2014,10,01,13,57,17.70
2014,10,01,13,58,17.70
2014,10,01,13,59,17.70
2014,10,01,14,00,17.70
2014,10,01,14,01,17.70
2014,10,01,14,02,17.70
2014,10,01,14,03,17.80
2014,10,01,14,04,17.70
2014,10,01,14,05,17.70
2014,10,01,14,06,17.80
2014,10,01,14,07,17.80
2014,10,01,14,08,17.80
2014,10,01,14,09,17.80
2014,10,01,14,10,17.70
2014,10,01,14,11,17.70
2014,10,01,14,12,17.70
2014,10,01,14,13,17.70
2014,10,01,14,14,17.60
2014,10,01,14,15,17.60
2014,10,01,14,16,17.60
2014,10,01,14,17,17.60
2014,10,01,14,18,17.60
2014,10,01,14,19,17.60
2014,10,01,14,20,17.60
2014,10,01,14,21,17.60
2014,10,01,14,22,17.60
2014,10,01,14,23,17.60
2014,10,01,14,24,17.60
2014,10,01,14,25,17.60
2014,10,01,14,26,17.60
2014,10,01,14,27,17.50
2014,10,01,14,28,17.50
2014,10,01,14,29,17.50
2014,10,01,14,30,17.50
2014,10,01,14,31,17.50
2014,10,01,14,32,17.50
2014,10,01,14,33,17.50
2014,10,01,14,34,17.50
2014,10,01,14,35,17.60
2014,10,01,14,36,17.60
2014,10,01,14,37,17.60
2014,10,01,14,38,17.60
2014,10,01,14,39,17.60
2014,10,01,14,40,17.60
2014,10,01,14,41,17.50
2014,10,01,14,42,17.50
2014,10,01,14,43,17.50
2014,10,01,14,44,17.40
2014,10,01,14,45,17.40
2014,10,01,14,46,17.40
2014,10,01,14,47,17.40
2014,10,01,14,48,17.30
2014,10,01,14,49,17.30
2014,10,01,14,50,17.30
2014,10,01,14,51,17.30
2014,10,01,14,52,17.20
2014,10,01,14,53,17.20
2014,10,01,14,54,17.20
2014,10,01,14,55,17.20
2014,10,01,14,56,17.20
2014,10,01,14,57,17.10
2014,10,01,14,58,17.10
2014,10,01,14,59,17.10
2014,10,01,15,00,17.10
2014,10,01,15,01,17.10
2014,10,01,15,02,17.10
2014,10,01,15,03,17.10
2014,10,01,15,04,17.10
2014,10,01,15,05,17.10
2014,10,01,15,06,17.10
2014,10,01,15,07,17.10
2014,10,01,15,08,17.20
2014,10,01,15,09,17.20
2014,10,01,15,10,17.20
2014,10,01,15,11,17.20
2014,10,01,15,12,17.20
2014,10,01,15,13,17.20
2014,10,01,15,14,17.20
2014,10,01,15,15,17.30
2014,10,01,15,16,17.30
2014,10,01,15,17,17.30
2014,10,01,15,18,17.30
2014,10,01,15,19,17.40
2014,10,01,15,20,17.40
2014,10,01,15,21,17.40
2014,10,01,15,22,17.40
2014,10,01,15,23,17.50
2014,10,01,15,24,17.50
2014,10,01,15,25,17.50
2014,10,01,15,26,17.50
2014,10,01,15,27,17.40
2014,10,01,15,28,17.40
2014,10,01,15,29,17.40
2014,10,01,15,30,17.40
2014,10,01,15,31,17.40
2014,10,01,15,32,17.50
2014,10,01,15,33,17.50
2014,10,01,15,34,17.50
2014,10,01,15,35,17.50
2014,10,01,15,36,17.50
2014,10,01,15,37,17.50
2014,10,01,15,38,17.50
2014,10,01,15,39,17.40
2014,10,01,15,40,17.40
2014,10,01,15,41,17.40
2014,10,01,15,42,17.40
2014,10,01,15,43,17.40
2014,10,01,15,44,17.40
2014,10,01,15,45,17.30
2014,10,01,15,46,17.30
2014,10,01,15,47,17.30
2014,10,01,15,48,17.30
2014,10,01,15,49,17.30
2014,10,01,15,50,17.20
2014,10,01,15,51,17.20
2014,10,01,15,52,17.20
2014,10,01,15,53,17.20
2014,10,01,15,54,17.20
2014,10,01,15,55,17.10
2014,10,01,15,56,17.10
2014,10,01,15,57,17.10
2014,10,01,15,58,17.10
2014,10,01,15,59,17.10
2014,10,01,16,00,17.10
2014,10,01,16,01,17.10
2014,10,01,16,02,17.10
2014,10,01,16,03,17.10
2014,10,01,16,04,17.10
2014,10,01,16,05,17.10
2014,10,01,16,06,17.10
2014,10,01,16,07,17.20
2014,10,01,16,08,17.20
2014,10,01,16,09,17.20
2014,10,01,16,10,17.20
2014,10,01,16,11,17.20
2014,10,01,16,12,17.20
2014,10,01,16,13,17.20
2014,10,01,16,14,17.20
2014,10,01,16,15,17.20
2014,10,01,16,16,17.20
2014,10,01,16,17,17.20
2014,10,01,16,18,17.20
2014,10,01,16,19,17.10
2014,10,01,16,20,17.10
2014,10,01,16,21,17.10
2014,10,01,16,22,17.10
2014,10,01,16,23,17.00
2014,10,01,16,24,17.00
2014,10,01,16,25,17.00
2014,10,01,16,26,17.00
2014,10,01,16,27,17.00
2014,10,01,16,28,16.90
2014,10,01,16,29,16.90
2014,10,01,16,30,16.90
2014,10,01,16,31,16.90
2014,10,01,16,32,16.80
2014,10,01,16,33,16.80
2014,10,01,16,34,16.80
2014,10,01,16,35,16.80
2014,10,01,16,36,16.80
2014,10,01,16,37,16.80
2014,10,01,16,38,16.70
2014,10,01,16,39,16.70
2014,10,01,16,40,16.70
2014,10,01,16,41,16.70
2014,10,01,16,42,16.70
2014,10,01,16,43,16.70
2014,10,01,16,44,16.70
2014,10,01,16,45,16.60
2014,10,01,16,46,16.60
2014,10,01,16,47,16.60
2014,10,01,16,48,16.50
2014,10,01,16,49,16.50
2014,10,01,16,50,16.40
2014,10,01,16,51,16.30
2014,10,01,16,52,16.30
2014,10,01,16,53,16.20
2014,10,01,16,54,16.20
2014,10,01,16,55,16.20
2014,10,01,16,56,16.00
2014,10,01,16,57,15.90
2014,10,01,16,58,15.80
2014,10,01,16,59,15.60
2014,10,01,17,00,15.50
2014,10,01,17,01,15.30
2014,10,01,17,02,15.20
2014,10,01,17,03,15.10
2014,10,01,17,04,15.00
2014,10,01,17,05,15.00
2014,10,01,17,06,14.90
2014,10,01,17,07,14.80
2014,10,01,17,08,14.80
2014,10,01,17,09,14.80
2014,10,01,17,10,14.80
2014,10,01,17,11,14.80
2014,10,01,17,12,14.80
2014,10,01,17,13,14.80
2014,10,01,17,14,14.80
2014,10,01,17,15,14.80
2014,10,01,17,16,14.80
2014,10,01,17,17,14.90
2014,10,01,17,18,14.90
2014,10,01,17,19,14.90
2014,10,01,17,20,14.90
2014,10,01,17,21,14.90
2014,10,01,17,22,14.90
2014,10,01,17,23,14.90
2014,10,01,17,24,14.90
2014,10,01,17,25,14.90